Regional Weather Roundup
Issued by NWS

Home | Current Version | Previous Version | Graphics & Text | Print | Product List | Glossary On
Versions: 1 2 3 4 5 6 7 8 9 10 11 12 13 14 15 16 17 18 19 20 21 22 23 24 25 26 27 28 29 30 31 32 33 34 35 36 37 38 39 40 41 42 43 44 45 46 47 48 49 50
000
ASUS43 KMKX 261500
RWRWI

WISCONSIN REGIONAL WEATHER ROUNDUP
NATIONAL WEATHER SERVICE MILWAUKEE/SULLIVAN WI
900 AM CST WED NOV 26 2014

NOTE: "FAIR" INDICATES FEW OR NO CLOUDS BELOW 12,000 FEET WITH NO
SIGNIFICANT WEATHER AND/OR OBSTRUCTIONS TO VISIBILITY.

WIZ001-002-006>008-014>016-023>028-261600-
NORTHWEST WISCONSIN

CITY           SKY/WX    TMP DP  RH WIND       PRES   REMARKS
SUPERIOR ARPT  CLOUDY    21  16  79 N3        30.19R
ASHLAND        CLOUDY    20  17  88 W3        30.18R FOG
HAYWARD        CLOUDY    21  17  84 NW3       30.13R
SIREN          CLOUDY    21  18  86 NE5       30.15R WCI  15
CUMBERLAND     MIX PCPN  21  18  86 NE3       30.12R
RICE LAKE      CLOUDY    22  18  83 CALM      30.14R
CHETEK         CLOUDY    22  18  85 CALM      30.13R
LADYSMITH      CLOUDY    22  18  83 CALM      30.13R
EAU CLAIRE     NOT AVBL
MENOMONIE      CLOUDY    23  17  79 E3        30.13R
NEW RICHMOND   CLOUDY    23  16  73 E3        30.13R HAZE
OSCEOLA        LGT SNOW  24  20  86 NE3       30.17R
$$

WIZ003>005-009-010-017-018-261600-
NORTH CENTRAL WISCONSIN

CITY           SKY/WX    TMP DP  RH WIND       PRES   REMARKS
MANITOWISH WTR LGT SNOW  16  15  96 CALM      30.09R
ARBOR VITAE    CLOUDY    19  17  90 S3        30.09S
WOODRUFF       CLOUDY    19  17  90 S3        30.09S
RHINELANDER    CLOUDY    16  13  88 CALM      30.10R
EAGLE RIVER    CLOUDY    15  12  87 CALM      30.09R
LAND O LAKES   FLURRIES  14  11  90 CALM      30.10R
PHILLIPS       CLOUDY    18  15  89 CALM      30.09S
TOMAHAWK       CLOUDY    17  14  90 CALM      30.11R
MEDFORD        CLOUDY    19  14  84 CALM      30.09R
MERRILL        CLOUDY    18  16  92 CALM      30.10S
$$

WIZ029-030-035-036-043>047-261600-
CENTRAL WISCONSIN

CITY           SKY/WX    TMP DP  RH WIND       PRES   REMARKS
WAUSAU         CLOUDY    18  15  88 SE7       30.10S WCI   9
MOSINEE        CLOUDY    18  18 100 SE5       30.13R WCI  11
MARSHFIELD     CLOUDY    19  14  81 SE7       30.11R WCI  10
STEVENS POINT  CLOUDY    14  12  93 CALM      30.14R FOG
WAUPACA        CLOUDY    17  14  88 CALM      30.17S FOG
WAUTOMA        CLOUDY    14  12  92 CALM      30.17R
WISC RAPIDS    CLOUDY    16  12  84 E6        30.14F WCI   7
CAMP DOUGLAS   NOT AVBL
$$

WIZ011>013-019>022-031-037>040-048>050-261600-
NORTHEAST WISCONSIN

CITY           SKY/WX    TMP DP  RH WIND       PRES   REMARKS
ANTIGO         CLOUDY    15  14  95 S3        30.10S FOG
SHAWANO        CLOUDY    19  16  90 CALM      30.17R
OCONTO         CLOUDY    15  14  96 CALM      30.18S
STURGEON BAY   CLOUDY    18  14  86 CALM      30.18R
GREEN BAY      CLOUDY    17  15  92 CALM      30.18R FOG
MANITOWOC      NOT AVBL
APPLETON       CLOUDY    18  18 100 CALM      30.16R
CLINTONVILLE   CLOUDY    18  16  93 CALM      30.16R FOG
OSHKOSH        CLOUDY    18  16  92 SW3       30.17R FOG
$$

WIZ032>034-041-042-053>061-261600-
SOUTHWEST WISCONSIN

CITY           SKY/WX    TMP DP  RH WIND       PRES   REMARKS
LA CROSSE      CLOUDY    22  16  78 E7        30.13R WCI  13
SPARTA         CLOUDY    18  15  87 CALM      30.13S
VIROQUA        CLOUDY    17  16  99 E7        30.07F WCI   7
BOSCOBEL       CLOUDY    18  14  84 NE7       30.13S WCI   9
PRAIRIE DU CHI CLOUDY    19  15  84 CALM      30.11S
PLATTEVILLE    CLOUDY    17  16  94 E9        30.10R WCI   6
$$

WIZ056-057-062-063-064-067-068-261600-
SOUTH CENTRAL WISCONSIN

CITY           SKY/WX    TMP DP  RH WIND       PRES   REMARKS
REEDSBURG      CLOUDY   N/A N/A N/A CALM      30.12S
BARABOO/DELLS  CLOUDY    13  11  92 E3        30.12S FOG
LONE ROCK      NOT AVBL
MINERAL POINT  CLOUDY    21  18  86 SE6       30.09R FOG     WCI  14
MADISON        FOG       13  12  96 E6        30.14S VSB 3/4 WCI   4
MIDDLETON      CLOUDY    18  15  90 CALM      30.13S
WATERTOWN      CLOUDY     9   8  93 CALM      30.15R FOG
MONROE         FOG       18  16  93 E7        30.10R VSB 1/2 WCI   8
JANESVILLE     CLOUDY    21  19  93 E5        30.13S FOG     WCI  15
$$

WIZ051-052-058>065-066-070>072-261600-
SOUTHEAST WISCONSIN

CITY           SKY/WX    TMP DP  RH WIND       PRES   REMARKS
MILWAUKEE      PTSUNNY   21  17  84 NW5       30.15S FOG     WCI  15
WAUKESHA       PTSUNNY   12  12 100 CALM      30.15S FOG
MILWAUKEE/TIMM NOT AVBL
RACINE         MOSUNNY   19  16  88 W3        30.16S FOG
BURLINGTON     PTSUNNY   15  14  95 CALM      30.15S FOG
KENOSHA        PTSUNNY   19  16  88 W3        30.15S FOG
FOND DU LAC    PTSUNNY   18  16  92 S5        30.16R WCI  11
SHEBOYGAN      CLOUDY    22  17  81 N6        30.16R WCI  14
WEST BEND      CLOUDY    21  18  86 CALM      30.15R
JUNEAU         SUNNY     15  13  92 SE3       30.16R FOG
$$

LSZ147-162-261600-
LAKE SUPERIOR

STATION/POSITION TIME  TEMP    WIND        PRES    WAVE
                       AIR SEA DIR/SP/G            HT/PER
                 (UTC) (F)     (DEG/KT/KT) (MB)    (FT/S)
DEVILS ISLAND    1400   25     350/ 10/ 12 1022.1R
PORT WING        1440   20      CALM  /  2 1022.0R
SAXON HARBOR     1440   20      CALM  /  4 1021.3R
$$

LMZ867-665-643>646-261600-
LAKE MICHIGAN

STATION/POSITION TIME  TEMP    WIND        PRES    WAVE
                       AIR SEA DIR/SP/G            HT/PER
                 (UTC) (F)     (DEG/KT/KT) (MB)    (FT/S)
CHAMBERS ISLAND  1400   21     260/  5/ 10 1022.0R
N MID LAKE BUOY  1350   29 42  280/  4/  8 1022.0R   1
NORTHPORT PIER   1407   24     270/  3/  6 1021.7R
SISTER BAY       1343          350/  2/  4   N/A
ALGOMA LAKESHORE 1343          330/  7/  8   N/A
KEWAUNEE LAKESHO 1400   17     300/  3/  6 1020.6R
SHEBOYGAN LAKESH 1400   22 37  290/  5/  5 1022.4R
PORT WASHINGTON  1400   22     260/  6/  7 1021.7
MILWAUKEE LAKESH 1400   21     230/  5/  7   N/A
S MID LAKE BUOY  1350   31 42  180/  6/  8 1021.8F   1/ 3
KENOSHA   LAKESH 1400   18     280/  6/  8 1021.3R
$$

TC  - TEMPERATURE IN CELSIUS
VSB - VISIBILITY IN STATUTE MILES
WCI - WIND CHILL INDEX
HX  - HEAT INDEX



USA.gov is the U.S. government's official web portal to all federal, state and local government web resources and services.